Showing default

BOTSAT-1, 63216

Orbit data source: Space-Track

BOTSAT-1, 63216 is a Batswana payload satellite in SSO that was launched on Sat, 15 Mar 2025 UTC via an FALCON 9 launch vehicle from the Air Force Western Test Range (AFWTR). Payload-class satellites include a variety of spacecraft equipped with specific instruments for various scientific and technological missions. These include communications satellites like Starlink; space stations such as the ISS; scientific satellites like the Hubble; Earth observation satellites from companies like Planet Labs, Umbra, and HawkEye 360; GPS; miniature CubeSats for education and research; and military/defense satellites.

Loading next visibility...
Identifier
63216, 2025-052G
Orbit
SSO
Country
Flag of BWBW / BWA
Related business
Manufacturer
Endurosat
Mission
Operational Amateur Technology
Bus & Motor
CUBESAT 3U, Unknown motor
Mass
5 kg wet, 5 kg dry
Launch date (UTC)
2025-03-15 (6 months ago)
Launch vehicle
FALCON 9
Launch site
Air Force Western Test Range (AFWTR)
Object type
Payload
Rocket body
Debris
Shape & HBR
Box + 4 Pan, 0.1 m
Radar Cross Section
0.035 m², Medium (>0.1 m² and < 1m²)

Expand to show TLE details & history
Last TLE update: 1 day ago

TLE from 1 day ago
0 BOTSAT-1
1 63216U 25052G   25257.69374700  .00007016  00000-0  32349-3 0  9997
2 63216  97.4142 149.9584 0004159  47.7795 312.3793 15.20557540 27994
Epoch: 2025-09-14T16:38Z
TLE epoch observation values (Epoch: 2025-09-14T16:38:59.74Z)
Latitude
-0.00002°
Longitude
-93.6996°
Altitude
505.32 km
Speed
7.613 km/s
True Right ascension
09h 59m 50s
True Declination
0° 00' 00"
Sunlit
Object was in daylight at epoch
Visualization orbit readout
Latitude
Unknown
Longitude
Unknown
Altitude
Unknown
Speed
Unknown
Apparent Right ascension
Unknown
Apparent Declination
Unknown
Sunlit
N/A
Visualization observer readout
Local Sidereal Time
12:16:41
Azimuth
Unknown
Elevation
Unknown
Doppler factor
Unknown
Orbital elements
Apogee altitude
503.984 km
Perigee altitude
498.262 km
Semi-major axis
6,879.26 km
Eccentricity
0.00042
Inclination
97.4142°
RAAN
149.9584°
Arg. of periapsis
47.7795°
True anomaly
312.34408°
Mean anomaly
312.3793°
Eccentric anomaly
312.36169°
Mean motion
3.80391 °/min
Orbital period
94.64 mins
BSTAR
0.00032349
Loading maneuver chart data...
Computing Atmospheric mass density...
Loading historical data...
Loading historical data...
Loading historical data...
Loading historical data...
Loading historical data...
Loading historical data...
Loading historical data...

Documentation

Showing up to 5 results
|